Location: *
(49.7115°N, 15.0136°E)
Time: 16:53:25
(UTC+00:00)

Cosmos 2369 Rocket - Pass Details

Date: 27 February 2020
Orbit: 827 x 854 km, 71.0° (Epoch: 30 March)

Event Time Altitude Azimuth Distance (km) Brightness Sun altitude
Rises 17:10:23 0° 210° (SSW) 3,384 5.9 -6.0°
Reaches altitude 10° 17:12:48 10° 211° (SSW) 2,457 5.2 -6.4°
Maximum altitude 17:18:28 81° 299° (WNW) 864 2.4 -7.3°
Drops below altitude 10° 17:24:12 10° 28° (NNE) 2,490 4.4 -8.2°
Sets 17:26:41 0° 29° (NNE) 3,432 5.1 -8.6°
